Location: Archemont
(49.1579°N, 1.7598°E)
Time: 07:02:44
(UTC+00:00)

BlueWalker 3 - Pass Details

Date: 28 February 2024
Orbit: 485 x 495 km, 53.2° (Epoch: 24 April)

Event Time Altitude Azimuth Distance (km) Brightness Sun altitude
Rises 20:12:11 0° 294° (WNW) 2,561 6.9 -26.4°
Reaches altitude 10° 20:14:22 10° 292° (WNW) 1,675 5.6 -26.7°
Enters shadow 20:16:40 34° 279° (W) 819 3.5 -27.1°
